Temp
6 5 5 5 5 5 5 5 5 5 5 5 5 5 5 5 5 5 5 6 6 7 7 6 5 6 7 5 7 11 11 12 12 12 11 12 13 13 13 13 15 16 18 19 19 20 20
5 5 5 5 5 5 5 5 5 5 4 4 5 4 4 4 5 6 6 7 8 8 8 8 5 5 6 6 10 10 10 10 10 10 10 11 12 13 13 13 14 15 16 17 18 19 19
5 5 5 5 5 5 5 5 5 5 4 4 4 4 4 4 5 5 7 8 8 9 9 8 6 5 6 6 10 9 9 9 10 10 9 11 11 11 12 13 14 14 14 15 17 18 17
6 5 5 5 5 5 5 5 5 4 4 4 4 4 4 4 5 6 7 8 9 8 9 8 6 6 5 9 9 10 10 10 11 11 10 11 11 10 11 13 14 14 14 15 19 18 18
5 5 5 5 5 5 5 5 5 5 4 4 4 4 4 4 5 6 8 9 9 8 8 8 7 6 6 9 10 10 10 9 10 10 11 11 11 10 12 11 12 14 14 16 17 19 18
5 5 5 5 5 5 5 5 5 5 4 4 4 4 4 4 5 6 8 9 9 8 8 7 7 6 8 9 10 10 10 10 9 9 10 11 9 10 9 11 12 13 14 15 15 18 18
5 4 4 4 4 5 5 5 5 5 4 4 4 4 4 4 6 7 8 8 5 5 6 6 7 7 8 9 9 10 9 9 9 8 8 9 8 9 9 12 12 14 14 15 16 17 18
5 4 4 4 4 4 4 4 4 4 4 4 4 4 4 5 6 6 7 5 5 4 4 6 6 7 8 8 7 9 9 8 8 7 8 8 6 9 10 11 11 12 12 13 16 16 17
4 4 4 4 4 4 4 4 4 4 4 4 4 4 4 5 6 6 5 5 5 5 4 5 8 8 9 8 8 8 9 8 8 7 7 7 9 11 10 10 10 11 12 14 14 15 16
4 4 4 4 4 4 4 4 4 4 4 3 3 3 3 4 6 4 6 6 6 6 1 7 10 11 11 10 9 10 9 9 9 7 8 7 9 9 9 8 9 8 12 13 12 12 13
4 4 5 4 4 4 4 4 4 4 3 3 3 3 3 3 3 4 6 6 6 5 1 9 10 12 10 10 10 10 9 9 8 7 8 8 9 8 8 9 10 9 11 11 12 12 10
5 5 5 4 4 4 4 4 4 3 3 3 3 3 3 3 3 5 5 6 6 -1 0 8 10 8 8 8 10 9 9 9 8 8 8 8 9 8 9 10 11 11 10 10 11 11 11
4 4 4 4 4 4 4 4 4 3 3 3 3 4 3 3 4 5 5 4 -0 -1 6 8 7 7 7 8 8 8 8 7 6 5 3 8 8 8 9 9 10 9 9 7 7 10 11
3 3 4 4 4 4 4 3 3 3 3 3 3 4 4 4 4 4 4 -0 -1 4 6 8 7 7 7 7 7 7 5 4 7 5 7 5 5 9 9 9 9 10 8 9 5 10 13
4 3 3 4 4 4 4 3 3 3 3 3 4 5 6 5 5 4 -0 -3 -0 5 7 6 6 7 7 7 6 6 4 6 6 6 6 5 5 9 9 10 9 9 9 11 10 11 11
4 4 4 4 4 4 4 3 3 3 3 3 4 3 5 5 5 5 -1 0 4 5 6 6 5 7 5 5 5 6 5 5 6 7 5 6 6 9 9 10 8 8 9 9 10 10 8
4 4 4 4 4 4 4 4 4 3 3 3 3 1 4 5 5 -0 -1 -2 4 6 7 6 6 6 5 5 6 6 7 7 7 6 6 6 6 8 9 8 7 8 8 8 9 11 9
4 4 4 4 4 4 4 4 4 3 3 4 1 -2 4 5 -1 -4 0 3 6 6 6 6 6 6 6 5 5 6 6 6 7 7 4 6 7 6 8 9 7 8 8 7 7 8 8
4 4 4 4 4 4 4 4 4 4 3 3 -3 -1 4 5 -3 -5 1 3 5 5 5 5 6 6 6 5 4 5 6 7 7 6 5 6 6 6 8 7 6 6 6 6 7 8 9
4 4 4 4 4 4 4 4 3 3 3 3 -3 -3 -3 -2 -1 2 3 3 4 5 4 5 5 5 5 4 5 5 5 6 6 6 8 6 5 6 5 5 6 6 7 6 6 6 8
3 3 4 4 4 4 4 4 3 3 3 3 -4 -5 -2 -4 -3 2 3 3 3 4 4 5 5 5 4 3 4 4 5 5 6 6 6 6 0 4 4 6 6 7 7 7 7 8 7
3 3 3 3 4 4 4 4 4 3 3 2 -4 -3 -2 -0 2 2 2 1 3 4 4 4 4 4 3 2 2 2 3 3 4 5 4 3 2 4 4 7 7 7 8 8 9 9 8
3 3 4 4 3 4 3 4 3 3 2 2 1 1 -1 -1 -0 -2 -0 3 4 4 4 4 4 3 3 3 3 3 4 4 4 4 4 3 1 2 3 6 6 4 8 9 9 9 9
3 3 3 3 3 4 4 3 3 3 2 2 2 1 1 -2 0 2 3 3 3 3 3 3 3 2 3 3 3 3 2 3 3 3 4 3 3 3 1 4 -1 7 9 10 10 10 9
2 3 3 3 3 4 4 3 3 3 2 2 1 1 1 -2 -0 2 2 2 2 2 2 2 3 3 3 3 0 -2 -3 -1 2 3 3 4 3 -0 0 3 6 8 10 9 9 9 9
1 2 2 3 3 3 3 3 3 3 3 2 1 1 0 -1 -1 2 1 2 -0 -1 -1 2 2 3 3 -4 -4 -3 -3 0 1 5 5 4 4 3 0 4 2 7 8 10 10 8 8
2 2 2 3 3 3 3 3 3 3 3 2 2 1 1 0 -1 0 -1 -1 1 -0 -2 -2 0 0 1 -6 0 -3 1 5 4 3 4 5 4 4 3 3 5 8 8 9 8 7 6
2 2 2 2 3 3 3 2 3 3 3 2 1 1 1 0 -1 1 1 1 -0 0 -1 -2 -2 -3 -6 -3 -2 -2 1 0 3 5 5 5 3 3 4 2 2 8 8 7 7 6 7
1 1 2 2 2 2 2 2 2 2 3 2 1 2 2 1 -0 1 1 2 1 1 1 -1 -2 0 -0 -1 -4 -3 -2 -2 2 2 6 5 5 5 4 5 6 8 7 7 7 7 8
Height
843 843 842 840 839 837 835 834 833 832 830 828 826 824 821 819 817 815 812 810 808 805 802 800 799 799 797 799 790 786 783 782 782 779 779 780 780 779 780 776 769 767 753 753 752 750 751
845 844 843 841 840 839 836 835 835 832 829 828 827 825 821 818 816 813 810 808 805 801 799 797 797 798 799 803 785 785 784 784 782 781 782 781 780 779 778 776 771 761 756 752 750 748 749
846 844 844 842 841 839 837 836 835 831 830 829 828 825 820 819 817 813 809 806 803 799 794 792 793 795 798 793 784 783 782 781 782 782 782 782 781 780 775 773 766 762 760 753 743 744 748
846 845 844 843 842 840 838 837 835 833 831 830 828 825 823 821 817 812 807 805 802 797 791 789 790 793 792 784 783 781 780 781 781 782 783 780 780 780 777 770 765 765 760 749 710 737 741
845 845 845 843 842 840 839 837 834 833 832 832 830 827 825 822 816 811 806 802 799 796 793 791 792 792 791 782 782 781 781 782 781 781 781 777 778 778 773 777 775 762 754 741 719 728 737
844 845 844 843 842 840 838 836 835 834 833 832 830 828 826 821 816 810 806 800 798 797 796 793 792 795 786 784 781 780 780 780 780 780 779 776 778 777 778 774 765 757 753 746 729 733 732
843 844 843 842 842 841 839 837 836 835 834 832 831 829 825 821 816 812 806 801 804 804 802 803 798 797 788 784 781 778 777 778 779 781 784 778 785 779 778 766 761 756 750 740 717 735 735
843 843 843 842 841 840 839 838 837 835 834 832 831 828 825 820 817 814 812 812 819 822 810 796 795 794 787 787 787 778 777 779 779 785 781 785 793 775 771 768 767 762 753 740 717 734 736
842 842 842 841 841 840 839 838 837 836 834 832 830 828 825 820 817 817 816 818 817 816 816 799 791 789 785 786 785 780 778 779 782 786 783 785 772 761 767 768 769 756 753 736 729 738 730
842 841 841 841 840 840 839 838 837 835 834 832 830 828 825 820 820 819 818 817 815 814 835 801 787 785 784 783 783 776 776 780 780 783 778 779 764 764 765 766 764 768 747 739 740 747 737
840 840 840 839 839 839 837 837 836 835 833 831 830 828 825 822 823 821 820 816 813 814 863 798 789 785 785 784 781 776 778 778 782 783 780 773 764 765 761 752 758 750 746 744 740 742 748
839 838 838 838 838 837 836 836 835 833 832 831 829 827 825 824 822 820 818 815 815 850 863 801 792 795 793 788 782 780 779 779 778 777 776 770 761 764 753 748 745 742 747 744 739 744 734
838 837 837 837 837 836 835 834 833 832 831 829 827 824 822 822 821 819 817 816 849 867 814 805 805 801 798 794 788 787 784 785 791 798 802 766 760 754 752 753 746 751 751 761 758 738 717
837 836 836 835 835 834 834 833 832 830 829 827 824 821 818 817 817 819 818 835 867 829 813 806 806 801 797 797 796 793 793 798 784 789 782 794 783 753 749 750 746 741 749 743 773 725 693
835 834 834 834 834 833 832 832 830 829 827 825 822 818 817 817 817 819 828 867 854 823 812 814 808 803 801 800 804 800 803 791 787 785 791 789 780 749 747 743 748 736 734 718 726 717 707
832 832 832 832 833 832 831 831 829 828 827 825 822 820 819 818 818 820 839 844 826 819 814 812 814 807 810 808 807 803 799 795 792 786 789 777 772 745 743 740 749 745 735 722 713 708 727
829 829 830 831 831 831 830 830 829 828 826 824 823 825 822 821 821 829 847 850 824 816 814 815 814 812 812 813 806 802 794 790 787 790 788 782 772 751 747 746 751 739 736 732 719 695 706
828 828 828 829 829 829 829 829 829 828 826 825 825 838 822 822 837 849 841 828 819 816 813 812 810 809 808 808 805 800 794 792 786 789 793 781 768 770 748 741 745 742 739 738 734 722 715
825 825 826 827 827 828 828 828 828 827 827 826 832 831 822 822 850 857 834 825 818 818 814 814 812 808 806 809 812 800 795 790 789 789 789 784 775 766 743 753 751 750 744 746 739 726 704
822 823 824 824 825 825 826 826 826 827 827 828 833 845 831 827 831 829 825 823 819 815 816 813 811 808 809 811 808 804 800 792 790 788 779 780 781 774 771 770 763 748 738 740 740 735 714
819 820 821 821 822 823 824 825 825 826 827 829 834 844 837 851 842 828 827 825 822 820 813 810 809 808 812 814 810 803 798 793 787 782 780 782 804 783 772 762 751 742 736 722 727 720 720
815 816 817 818 819 820 822 823 824 825 826 829 838 840 836 833 828 828 829 828 819 815 814 811 811 809 812 818 813 807 801 797 791 781 783 784 794 775 772 751 744 736 724 717 703 699 706
810 812 814 815 816 817 819 820 821 822 824 826 828 830 833 833 832 839 831 820 814 812 809 809 809 810 810 805 803 798 792 787 783 781 775 782 792 784 776 753 749 754 717 713 700 692 697
806 808 810 811 812 813 815 817 818 820 821 823 824 827 829 835 828 822 817 817 815 814 812 807 809 808 801 798 796 787 783 776 768 764 763 771 774 777 783 763 801 722 707 704 701 698 700
803 804 806 807 808 809 811 813 814 816 818 819 821 824 825 830 824 817 814 814 811 810 810 808 804 802 800 800 802 810 803 787 764 752 751 754 767 791 789 770 737 716 702 710 705 704 703
799 801 802 804 804 806 808 809 811 812 814 814 815 818 821 825 817 809 813 811 816 817 814 803 799 797 797 815 820 822 822 792 778 749 744 752 757 766 782 755 769 716 708 699 701 705 703
795 797 799 800 801 802 804 805 807 809 810 812 811 814 816 815 809 808 814 814 810 812 815 811 803 801 797 825 803 818 794 765 766 766 754 745 750 755 762 757 738 714 710 698 704 715 711
793 795 796 796 797 799 800 802 804 805 806 807 807 809 811 808 804 801 801 803 806 807 810 809 812 806 816 813 810 809 789 789 774 756 752 750 757 758 746 759 762 712 710 715 714 711 708
790 792 793 794 795 796 798 799 800 802 802 803 802 805 807 807 798 794 793 792 792 795 798 803 804 797 795 801 811 806 806 801 778 774 743 747 742 740 742 734 717 712 715 711 709 705 703
Wind_Speed
8 8 9 9 9 9 10 11 12 12 13 15 16 18 19 20 21 21 21 22 21 20 18 16 12 11 6 4 7 2 10 16 13 15 11 4 1 3 4 4 3 15 16 11 8 10 9
7 8 8 9 9 9 10 10 11 14 15 17 18 19 20 22 23 24 25 24 22 21 21 18 11 5 3 2 3 8 15 17 10 11 6 5 4 6 5 5 6 6 7 13 11 18 11
5 6 7 8 9 9 10 11 13 15 16 17 18 20 22 23 24 25 27 23 21 23 21 18 7 1 1 10 12 17 16 10 7 6 3 2 6 3 5 4 5 5 16 14 17 5 7
6 8 6 7 9 9 10 11 13 15 16 18 19 21 22 23 25 29 25 22 23 15 17 10 2 5 5 6 13 10 9 4 4 6 6 13 9 4 4 6 4 5 5 15 27 15 7
7 9 8 8 9 10 10 11 13 15 16 17 19 20 22 25 29 29 22 23 13 6 13 8 5 3 8 10 4 8 6 2 6 5 14 18 6 5 4 4 4 8 15 20 27 9 5
7 9 9 9 10 11 11 12 13 14 16 17 18 20 22 25 30 22 23 20 8 3 8 3 3 3 4 3 8 9 8 8 1 4 6 2 2 3 3 5 15 12 18 16 24 4 11
7 8 8 9 10 11 12 13 13 13 15 16 18 20 22 24 29 17 22 7 8 5 7 4 9 4 14 9 12 5 9 2 2 1 1 2 1 7 6 12 17 16 19 21 30 7 9
7 8 8 8 10 10 11 12 13 14 15 16 17 19 21 24 26 12 13 6 4 5 9 9 12 8 15 8 4 4 2 3 2 2 2 2 5 11 9 12 15 20 23 28 32 13 17
7 7 6 8 9 10 11 11 12 13 15 16 17 18 20 23 15 15 5 6 13 7 3 6 4 4 5 8 4 5 4 1 2 2 5 7 8 7 8 11 13 19 22 27 31 13 19
7 7 6 7 9 11 11 11 11 13 15 16 16 17 19 23 3 16 3 13 18 0 4 5 2 1 2 2 4 3 4 2 1 4 4 7 6 9 11 15 12 15 20 22 25 6 12
9 10 8 8 10 13 13 10 11 13 15 15 15 16 17 16 12 7 6 17 11 2 5 6 2 2 8 2 5 1 1 2 4 4 1 8 3 6 13 15 8 13 9 19 21 16 16
11 11 8 7 11 12 11 8 10 13 13 14 15 17 17 11 11 8 10 15 2 6 5 5 3 7 8 5 5 7 2 2 2 5 5 19 8 6 11 13 14 10 10 13 13 11 16
9 7 7 8 9 10 11 11 12 11 13 16 17 20 17 12 4 7 14 4 5 4 4 4 5 8 7 4 5 4 5 4 1 4 4 10 4 3 4 6 9 10 6 4 5 9 11
11 11 9 9 10 9 12 11 11 13 13 17 18 21 11 5 4 2 3 5 4 3 3 3 4 9 3 9 5 8 5 3 1 1 4 3 9 1 2 4 5 10 8 5 6 8 17
11 8 8 8 8 10 10 10 11 13 13 16 20 13 4 6 3 5 5 4 5 3 3 6 8 3 3 5 1 7 3 3 2 4 2 3 7 5 5 7 5 3 6 15 11 19 11
12 9 10 9 9 9 9 9 11 12 12 15 13 9 5 6 8 2 4 3 3 3 4 3 2 3 4 5 5 6 3 3 7 2 4 2 8 4 4 3 5 5 9 6 7 6 9
10 9 10 10 10 11 10 8 10 11 10 13 5 3 3 7 2 4 2 5 4 4 4 3 2 4 3 3 3 5 5 4 2 7 3 9 7 5 5 1 2 5 4 4 6 6 4
11 12 12 10 11 9 10 9 9 9 9 6 2 2 3 2 3 1 2 3 4 4 3 4 4 4 4 4 4 4 5 2 8 8 8 3 5 5 13 2 4 3 3 3 3 6 5
11 10 8 9 9 10 9 8 7 6 6 4 2 2 2 2 1 2 4 4 3 2 2 4 3 4 2 3 5 4 5 5 10 10 4 5 3 5 8 2 2 5 2 2 6 4 5
13 11 11 10 9 11 9 6 7 3 4 3 3 2 4 3 1 4 0 3 2 3 5 4 4 4 3 3 6 6 13 6 8 11 20 5 3 9 11 7 12 12 15 10 3 4 9
13 13 12 12 10 9 7 7 8 5 4 1 3 3 3 2 3 2 1 2 6 4 4 2 3 2 4 4 10 7 11 18 10 15 3 2 5 10 11 18 19 17 17 18 15 15 8
12 12 13 11 11 10 9 8 8 7 7 2 2 2 1 2 2 2 3 3 5 5 3 4 5 7 5 5 8 16 16 12 11 8 7 2 7 11 17 13 8 18 19 17 9 6 8
11 13 12 13 12 13 12 10 8 10 12 4 3 2 3 3 1 3 4 5 4 2 6 5 5 10 10 13 8 14 15 16 17 18 20 6 3 1 7 7 14 9 3 6 12 4 3
11 13 12 12 12 13 13 13 9 10 16 9 5 4 2 4 4 5 4 5 10 10 13 13 9 8 5 7 12 12 12 16 19 20 18 11 8 2 5 3 3 6 12 5 10 9 10
11 11 12 12 13 13 11 13 11 10 13 19 11 5 2 3 3 8 11 10 10 10 12 9 10 11 3 9 4 7 5 6 7 8 10 16 8 2 2 3 9 11 2 4 7 8 11
10 8 10 11 11 11 12 13 13 10 11 21 16 15 3 1 6 8 3 3 2 3 4 8 5 8 0 2 3 1 3 5 6 9 10 8 11 5 1 4 5 4 10 14 8 3 16
13 11 11 14 15 12 14 13 11 10 12 15 9 18 6 3 4 5 4 4 3 1 3 4 5 4 2 1 1 3 3 4 3 6 6 1 4 11 6 4 6 4 10 11 2 5 18
8 12 12 10 11 14 12 10 10 14 14 13 9 17 10 3 5 7 6 6 2 2 4 3 5 3 3 1 3 3 2 3 3 6 6 3 1 3 3 3 5 2 8 4 3 4 11
5 6 8 10 8 9 9 11 12 11 14 13 9 14 18 9 5 9 17 23 26 25 6 5 6 2 2 2 0 1 2 2 2 3 4 3 3 3 3 4 5 7 5 10 6 6 8
Wind_Direction
51 44 40 34 34 29 27 22 13 9 10 8 5 1 358 356 350 344 339 336 333 330 329 321 320 338 12 12 257 241 305 346 356 15 35 1 225 209 233 256 219 245 257 259 252 258 256
45 39 35 34 26 22 21 16 10 10 9 8 4 359 356 353 347 343 338 334 335 334 328 320 312 328 109 310 324 327 327 337 354 11 18 18 304 307 267 250 233 311 307 271 257 256 254
15 19 18 19 18 16 14 11 9 11 8 5 1 358 355 351 343 338 335 335 334 331 322 316 313 13 211 244 327 313 315 317 333 343 344 286 303 283 340 272 310 298 292 285 257 203 239
5 11 348 357 360 4 5 6 7 7 6 2 359 357 353 347 343 340 335 333 331 338 348 347 59 113 242 281 327 350 348 31 42 338 265 305 287 240 238 297 287 283 256 262 255 219 209
17 7 1 352 339 346 350 355 358 359 358 356 354 352 348 346 346 342 341 334 339 348 10 29 66 88 283 322 348 347 2 14 346 310 318 291 228 207 250 209 287 226 256 251 271 210 193
347 344 343 349 351 355 344 343 341 343 346 348 347 346 345 345 346 350 346 335 343 347 349 25 65 11 290 302 317 301 291 302 329 310 306 349 133 229 224 191 230 244 244 267 267 278 197
337 341 337 336 337 344 347 349 345 343 337 337 338 342 343 342 348 350 354 0 12 351 32 271 276 279 278 308 303 278 305 196 197 128 239 276 103 238 244 244 256 268 266 260 268 242 261
320 326 327 342 341 342 340 339 342 342 341 337 336 338 340 341 346 351 31 73 81 284 305 281 259 244 269 264 304 286 126 126 127 235 190 321 241 254 250 266 271 274 259 258 271 253 277
319 322 323 341 344 336 336 338 342 347 346 339 335 337 340 339 348 356 49 55 348 348 298 299 255 250 272 148 244 279 130 124 237 281 209 232 243 250 251 249 271 254 260 256 261 290 273
302 315 320 324 333 330 322 326 332 337 337 340 338 340 343 341 25 346 11 349 339 272 50 286 313 290 358 228 281 200 181 218 244 282 270 242 268 240 263 250 232 263 246 263 271 290 255
272 288 301 302 320 323 319 315 328 335 334 334 335 340 342 342 310 315 321 334 342 84 17 290 45 16 315 289 309 6 90 54 242 245 23 261 243 227 236 251 193 248 245 250 261 262 280
298 294 278 295 319 327 334 326 326 327 332 335 332 330 335 335 309 303 333 330 354 45 260 332 40 351 350 335 324 323 324 21 264 293 233 266 266 289 253 273 249 290 289 259 257 247 246
304 303 296 309 321 319 326 322 329 328 328 333 325 328 320 292 250 304 327 24 37 119 297 18 339 332 318 312 315 336 312 286 233 12 333 307 269 277 235 272 254 251 274 268 220 213 253
287 290 297 301 312 301 315 319 323 329 330 332 328 331 327 300 230 273 354 52 81 268 285 352 325 315 301 24 330 320 303 307 256 318 289 329 322 274 147 213 263 250 222 216 214 222 246
290 293 288 294 303 298 306 317 321 328 328 337 336 351 34 13 135 165 70 58 208 232 346 338 322 319 307 22 287 354 307 273 280 204 206 285 267 276 216 250 153 323 210 238 245 261 279
279 296 283 289 294 300 309 311 320 324 333 338 342 338 11 21 132 100 72 240 260 230 355 328 282 359 319 333 351 338 308 320 339 2 267 246 276 244 282 288 159 242 291 285 200 204 236
291 294 288 294 288 288 289 308 321 325 327 339 359 39 46 111 29 47 161 231 288 278 11 282 287 291 278 300 264 306 282 346 337 343 320 282 234 278 349 344 287 351 343 287 277 246 221
291 282 279 288 289 284 288 284 308 324 330 346 52 34 355 43 41 301 185 218 285 291 313 282 240 245 273 327 284 276 252 230 314 355 319 264 302 289 282 308 210 261 242 291 313 307 278
271 283 291 285 296 296 286 274 279 317 328 346 92 277 340 161 135 250 257 258 252 289 314 339 282 265 308 318 317 305 324 345 319 339 321 324 309 309 308 310 311 288 226 187 274 285 275
278 278 275 284 277 298 276 272 260 271 298 341 74 14 324 42 12 147 222 272 278 314 281 236 261 296 358 313 280 297 298 300 313 298 298 312 281 310 310 322 298 291 292 291 224 265 317
265 269 272 278 272 287 268 277 246 227 240 198 39 252 189 281 317 127 75 272 284 281 228 268 285 329 336 284 302 276 307 306 295 293 298 295 264 283 275 305 289 285 284 297 281 266 260
265 265 271 263 265 268 266 260 246 230 201 177 128 138 317 277 289 226 256 248 229 245 226 239 260 291 285 249 256 287 288 284 280 284 279 248 259 320 295 280 315 311 302 299 294 259 253
274 260 271 265 267 263 251 252 246 217 187 175 181 162 112 256 220 105 227 228 252 265 253 243 279 306 289 274 276 283 270 269 260 265 268 243 223 279 276 323 322 310 223 291 316 265 246
265 261 258 262 270 262 260 239 235 228 218 198 168 147 201 260 199 211 225 247 269 276 272 283 279 269 245 314 301 281 263 258 259 255 239 231 213 199 269 325 342 250 306 265 359 19 357
258 262 255 259 269 262 260 236 238 247 227 215 194 172 209 256 218 252 251 261 265 271 275 273 273 262 325 319 301 337 323 329 276 235 250 207 189 248 214 221 286 294 36 345 359 309 5
262 264 252 261 269 257 251 249 238 251 245 216 203 209 186 190 227 246 217 237 264 246 291 269 285 286 299 103 81 220 273 252 307 326 43 171 199 198 132 242 233 266 343 327 326 230 348
253 253 261 263 265 258 261 238 234 258 252 224 223 216 205 248 247 183 193 209 215 215 240 301 302 313 75 72 184 214 261 279 314 314 330 317 163 207 219 257 286 280 330 313 172 349 313
258 246 257 270 255 250 240 238 263 268 252 225 227 221 213 247 253 212 190 213 258 184 235 267 0 349 30 134 159 247 249 282 295 274 282 278 223 213 185 211 291 207 348 360 259 288 306
273 264 259 264 273 256 243 259 261 263 262 248 221 227 236 235 266 271 272 255 236 231 228 194 208 208 228 86 322 315 326 304 270 281 266 260 216 287 213 242 268 310 218 274 224 253 301